�������l�o���
Date,Time,MP-1(��Sv/h),MP-2(��Sv/h),MP-3(��Sv/h),MP-4(��Sv/h),MP-5(��Sv/h),MP-6(��Sv/h),MP-7(��Sv/h),MP-8(��Sv/h),����,����(m/s),���J
2021/05/20,00:00,0.620,0.903,0.576,1.111,0.785,0.368,0.642,0.602,�k�k��,1.1,��
2021/05/20,00:10,0.622,0.902,0.575,1.110,0.784,0.368,0.643,0.601,�k�k��,1.5,��
2021/05/20,00:20,0.619,0.900,0.575,1.109,0.786,0.367,0.643,0.601,�k,2.0,��
2021/05/20,00:30,0.620,0.901,0.574,1.110,0.785,0.368,0.642,0.603,�k�k��,1.9,��
2021/05/20,00:40,0.620,0.904,0.574,1.110,0.786,0.366,0.642,0.601,�k,1.7,��
2021/05/20,00:50,0.620,0.902,0.574,1.110,0.786,0.367,0.643,0.601,�k��,2.5,��
2021/05/20,01:00,0.619,0.903,0.574,1.111,0.785,0.366,0.642,0.601,�k��,1.5,��
2021/05/20,01:10,0.620,0.901,0.574,1.107,0.785,0.367,0.642,0.601,���k��,0.6,��
2021/05/20,01:20,0.622,0.901,0.572,1.111,0.785,0.367,0.641,0.602,���쓌,1.5,��
2021/05/20,01:30,0.617,0.900,0.574,1.110,0.784,0.369,0.643,0.601,���쓌,1.2,��
2021/05/20,01:40,0.620,0.903,0.573,1.110,0.786,0.366,0.642,0.600,��쓌,2.0,��
2021/05/20,01:50,0.620,0.900,0.573,1.110,0.787,0.367,0.642,0.600,�쓌,1.5,��
2021/05/20,02:00,0.620,0.899,0.573,1.111,0.785,0.367,0.641,0.603,�쓌,1.2,��
2021/05/20,02:10,0.619,0.902,0.574,1.109,0.786,0.365,0.641,0.600,�쓌,1.7,��
2021/05/20,02:20,0.620,0.900,0.576,1.111,0.782,0.366,0.642,0.600,��쐼,2.0,��
2021/05/20,02:30,0.621,0.902,0.573,1.110,0.786,0.366,0.643,0.601,�쐼,0.9,��
2021/05/20,02:40,0.620,0.901,0.574,1.111,0.786,0.368,0.641,0.600,��,1.2,��
2021/05/20,02:50,0.620,0.901,0.574,1.110,0.785,0.366,0.642,0.600,���쐼,0.8,��
2021/05/20,03:00,0.620,0.902,0.573,1.110,0.783,0.366,0.641,0.599,��쓌,1.1,��
2021/05/20,03:10,0.619,0.898,0.572,1.110,0.785,0.367,0.642,0.600,���쐼,0.6,��
2021/05/20,03:20,0.620,0.903,0.573,1.108,0.785,0.368,0.642,0.601,��,1.9,��
2021/05/20,03:30,0.618,0.901,0.574,1.110,0.784,0.368,0.641,0.601,��쓌,3.3,��
2021/05/20,03:40,0.619,0.902,0.575,1.110,0.784,0.367,0.642,0.600,��,2.6,��
2021/05/20,03:50,0.618,0.902,0.573,1.109,0.785,0.367,0.640,0.601,��쓌,2.5,��
2021/05/20,04:00,0.619,0.901,0.573,1.110,0.785,0.366,0.641,0.600,��쐼,0.9,��
2021/05/20,04:10,0.620,0.901,0.572,1.109,0.785,0.366,0.640,0.600,��쓌,1.7,��
2021/05/20,04:20,0.619,0.900,0.572,1.109,0.783,0.367,0.642,0.601,��쓌,2.9,��
2021/05/20,04:30,0.620,0.900,0.572,1.110,0.784,0.366,0.642,0.601,�쓌,2.0,��
2021/05/20,04:40,0.619,0.900,0.571,1.109,0.785,0.367,0.643,0.600,�쓌,1.4,��
2021/05/20,04:50,0.619,0.902,0.574,1.110,0.783,0.365,0.642,0.601,��,1.5,��
2021/05/20,05:00,0.619,0.900,0.573,1.110,0.785,0.367,0.641,0.601,���k��,2.3,��
2021/05/20,05:10,0.619,0.901,0.574,1.108,0.787,0.366,0.640,0.600,�k�k��,1.7,��
2021/05/20,05:20,0.619,0.901,0.574,1.108,0.782,0.365,0.642,0.602,�k,2.0,��
2021/05/20,05:30,0.618,0.900,0.574,1.108,0.786,0.365,0.641,0.602,�k,2.3,��
2021/05/20,05:40,0.620,0.900,0.573,1.111,0.784,0.366,0.641,0.600,�k�k��,3.7,��
2021/05/20,05:50,0.617,0.900,0.574,1.109,0.783,0.366,0.642,0.600,�k�k��,3.4,��
2021/05/20,06:00,0.619,0.902,0.574,1.112,0.785,0.368,0.642,0.601,�k,3.8,��
2021/05/20,06:10,0.620,0.902,0.575,1.108,0.786,0.366,0.642,0.599,�k,3.3,��
2021/05/20,06:20,0.620,0.902,0.576,1.110,0.784,0.367,0.642,0.600,�k�k��,3.8,��
2021/05/20,06:30,0.619,0.903,0.575,1.110,0.784,0.367,0.644,0.601,�k�k��,3.5,��
2021/05/20,06:40,0.622,0.904,0.574,1.109,0.785,0.367,0.642,0.602,�k�k��,3.1,��
2021/05/20,06:50,0.621,0.902,0.574,1.110,0.786,0.367,0.644,0.600,�k�k��,2.5,��
2021/05/20,07:00,0.621,0.903,0.574,1.109,0.784,0.367,0.644,0.601,�k�k��,0.9,��
2021/05/20,07:10,0.621,0.903,0.576,1.111,0.784,0.365,0.643,0.601,�k��,1.4,��
2021/05/20,07:20,0.622,0.901,0.575,1.109,0.786,0.366,0.643,0.602,���k��,0.6,��
2021/05/20,07:30,0.622,0.901,0.575,1.110,0.785,0.367,0.642,0.601,���k��,0.6,��
2021/05/20,07:40,0.621,0.903,0.574,1.114,0.786,0.366,0.641,0.601,��,0.6,��
2021/05/20,07:50,0.620,0.901,0.575,1.112,0.786,0.366,0.643,0.602,��,1.1,��
2021/05/20,08:00,0.620,0.904,0.576,1.114,0.787,0.365,0.643,0.600,��,2.0,��
2021/05/20,08:10,0.621,0.903,0.577,1.113,0.787,0.366,0.642,0.599,��,2.5,��
2021/05/20,08:20,0.620,0.904,0.575,1.115,0.789,0.366,0.641,0.599,��,2.2,��
2021/05/20,08:30,0.621,0.903,0.576,1.112,0.786,0.365,0.642,0.599,��,1.7,��
2021/05/20,08:40,0.620,0.903,0.576,1.112,0.787,0.365,0.643,0.601,���쓌,2.8,��
2021/05/20,08:50,0.621,0.906,0.576,1.113,0.788,0.365,0.642,0.599,���쓌,2.5,��
2021/05/20,09:00,0.622,0.906,0.575,1.113,0.787,0.366,0.643,0.600,�쓌,3.5,��
2021/05/20,09:10,0.622,0.906,0.575,1.113,0.787,0.368,0.643,0.600,�쓌,2.5,��
2021/05/20,09:20,0.624,0.905,0.577,1.115,0.789,0.365,0.643,0.599,�쓌,2.8,��
2021/05/20,09:30,0.625,0.905,0.576,1.114,0.788,0.367,0.642,0.600,�쓌,2.2,��
2021/05/20,09:40,0.624,0.906,0.576,1.114,0.789,0.367,0.643,0.599,�쓌,2.2,��
2021/05/20,09:50,0.625,0.907,0.575,1.113,0.789,0.366,0.644,0.601,�쓌,2.9,��
2021/05/20,10:00,0.625,0.907,0.576,1.113,0.791,0.368,0.643,0.599,�쓌,2.9,��
2021/05/20,10:10,0.623,0.909,0.576,1.116,0.790,0.366,0.642,0.601,�쓌,3.1,��
2021/05/20,10:20,0.627,0.908,0.577,1.113,0.790,0.367,0.642,0.601,�쓌,3.3,��
2021/05/20,10:30,0.626,0.910,0.578,1.116,0.792,0.366,0.644,0.600,�쓌,2.2,��
2021/05/20,10:40,0.625,0.912,0.577,1.116,0.790,0.367,0.645,0.601,���쓌,2.3,��
2021/05/20,10:50,0.625,0.909,0.576,1.114,0.794,0.367,0.644,0.601,�쓌,4.4,��
2021/05/20,11:00,0.625,0.913,0.579,1.115,0.793,0.367,0.646,0.602,�쓌,3.8,��
2021/05/20,11:10,0.626,0.911,0.579,1.113,0.791,0.367,0.646,0.601,��쓌,5.7,��
2021/05/20,11:20,0.625,0.912,0.580,1.111,0.792,0.368,0.645,0.602,��쓌,5.8,��
2021/05/20,11:30,0.626,0.913,0.579,1.112,0.794,0.368,0.645,0.601,��쓌,6.0,��
2021/05/20,11:40,0.628,0.914,0.578,1.116,0.786,0.367,0.646,0.601,��쓌,5.6,��
2021/05/20,11:50,0.627,0.917,0.578,1.112,0.790,0.368,0.646,0.601,��쓌,5.8,��
2021/05/20,12:00,0.626,0.915,0.580,1.114,0.792,0.368,0.645,0.601,��쓌,5.8,��
2021/05/20,12:10,0.627,0.917,0.577,1.113,0.792,0.369,0.646,0.601,�쓌,5.2,��
2021/05/20,12:20,0.627,0.915,0.579,1.115,0.790,0.367,0.645,0.600,�쓌,5.6,��
2021/05/20,12:30,0.627,0.917,0.580,1.117,0.795,0.369,0.645,0.601,�쓌,5.6,��
2021/05/20,12:40,0.629,0.916,0.583,1.116,0.791,0.369,0.645,0.602,��쓌,5.6,��
2021/05/20,12:50,0.628,0.915,0.580,1.113,0.790,0.369,0.645,0.602,��쓌,5.1,��
2021/05/20,13:00,0.628,0.917,0.580,1.117,0.796,0.368,0.646,0.601,��쓌,5.7,��
2021/05/20,13:10,0.628,0.915,0.582,1.115,0.795,0.369,0.646,0.601,��쓌,6.6,��
2021/05/20,13:20,0.628,0.915,0.581,1.116,0.797,0.368,0.646,0.602,��쓌,7.5,��
2021/05/20,13:30,0.629,0.917,0.581,1.115,0.796,0.369,0.647,0.602,��쓌,7.6,��
2021/05/20,13:40,0.627,0.917,0.580,1.115,0.798,0.369,0.646,0.602,��쓌,6.8,��
2021/05/20,13:50,0.629,0.917,0.580,1.116,0.797,0.368,0.646,0.602,��쓌,7.9,��
2021/05/20,14:00,0.630,0.916,0.582,1.115,0.800,0.369,0.646,0.602,��쓌,7.3,��
2021/05/20,14:10,0.631,0.916,0.580,1.117,0.797,0.368,0.646,0.602,��,8.4,��
2021/05/20,14:20,0.630,0.917,0.583,1.117,0.798,0.370,0.646,0.604,��,9.0,��
2021/05/20,14:30,0.629,0.917,0.580,1.117,0.799,0.369,0.647,0.602,��쓌,9.2,��
2021/05/20,14:40,0.630,0.917,0.581,1.117,0.799,0.369,0.644,0.603,��쓌,8.9,��
2021/05/20,14:50,0.630,0.917,0.582,1.119,0.800,0.369,0.647,0.603,��,8.3,��
2021/05/20,15:00,0.631,0.917,0.582,1.119,0.799,0.368,0.645,0.602,��,8.2,��
2021/05/20,15:10,0.628,0.919,0.582,1.119,0.799,0.370,0.645,0.602,��,8.6,��
2021/05/20,15:20,0.627,0.917,0.583,1.118,0.800,0.368,0.646,0.602,��,6.4,��
2021/05/20,15:30,0.629,0.919,0.582,1.118,0.799,0.369,0.645,0.602,��쓌,6.3,��
2021/05/20,15:40,0.628,0.919,0.583,1.121,0.798,0.368,0.646,0.602,��,8.0,��
2021/05/20,15:50,0.627,0.917,0.581,1.119,0.799,0.368,0.647,0.602,��,7.2,��
2021/05/20,16:00,0.627,0.921,0.582,1.120,0.799,0.370,0.645,0.603,��,8.1,��
2021/05/20,16:10,0.627,0.919,0.582,1.122,0.799,0.369,0.647,0.602,��,9.5,��
2021/05/20,16:20,0.627,0.921,0.583,1.123,0.797,0.369,0.645,0.601,��쓌,10.2,��
2021/05/20,16:30,0.627,0.920,0.581,1.122,0.798,0.368,0.647,0.603,��,10.5,��
2021/05/20,16:40,0.627,0.921,0.582,1.123,0.799,0.369,0.645,0.600,��쓌,10.5,��
2021/05/20,16:50,0.626,0.920,0.581,1.122,0.800,0.369,0.647,0.602,��,8.6,��
2021/05/20,17:00,0.627,0.919,0.582,1.125,0.800,0.368,0.647,0.603,��쓌,9.5,��
2021/05/20,17:10,0.630,0.921,0.580,1.122,0.800,0.369,0.645,0.603,��,10.5,��
2021/05/20,17:20,0.628,0.922,0.581,1.124,0.800,0.368,0.646,0.604,��,10.3,��
2021/05/20,17:30,0.627,0.921,0.584,1.124,0.798,0.369,0.645,0.603,��,9.1,��
2021/05/20,17:40,0.628,0.920,0.583,1.123,0.800,0.368,0.645,0.604,��,10.2,��
2021/05/20,17:50,0.629,0.920,0.583,1.123,0.800,0.368,0.647,0.602,��,8.1,��
2021/05/20,18:00,0.628,0.922,0.583,1.123,0.799,0.369,0.645,0.604,��,9.2,��
2021/05/20,18:10,0.629,0.921,0.584,1.125,0.799,0.370,0.646,0.603,��,8.7,��
2021/05/20,18:20,0.628,0.921,0.584,1.125,0.800,0.371,0.645,0.606,��,9.0,��
2021/05/20,18:30,0.627,0.920,0.587,1.123,0.797,0.369,0.646,0.605,��,6.6,�L
2021/05/20,18:40,0.628,0.922,0.586,1.124,0.801,0.369,0.646,0.605,��,8.8,�L
2021/05/20,18:50,0.630,0.922,0.585,1.124,0.801,0.371,0.645,0.605,��,7.8,�L
2021/05/20,19:00,0.627,0.921,0.584,1.125,0.802,0.370,0.647,0.604,��쓌,5.6,�L
2021/05/20,19:10,0.629,0.920,0.584,1.122,0.799,0.368,0.646,0.605,��,5.5,�L
2021/05/20,19:20,0.626,0.924,0.587,1.126,0.801,0.370,0.646,0.605,��,6.2,�L
2021/05/20,19:30,0.628,0.922,0.585,1.127,0.802,0.371,0.647,0.606,��,7.0,�L
2021/05/20,19:40,0.629,0.923,0.587,1.123,0.802,0.370,0.647,0.606,��,8.6,�L
2021/05/20,19:50,0.628,0.922,0.586,1.122,0.801,0.371,0.649,0.606,��,9.7,�L
2021/05/20,20:00,0.629,0.922,0.586,1.123,0.801,0.371,0.647,0.605,��,8.6,�L
2021/05/20,20:10,0.628,0.923,0.584,1.124,0.802,0.370,0.648,0.605,��,7.0,�L
2021/05/20,20:20,0.627,0.925,0.586,1.123,0.802,0.370,0.648,0.605,��,6.4,�L
2021/05/20,20:30,0.627,0.923,0.585,1.124,0.800,0.370,0.646,0.606,��,6.3,�L
2021/05/20,20:40,0.624,0.921,0.583,1.123,0.798,0.370,0.647,0.604,��,5.9,�L
2021/05/20,20:50,0.623,0.916,0.584,1.123,0.793,0.369,0.644,0.604,��,5.2,�L
2021/05/20,21:00,0.625,0.914,0.582,1.120,0.796,0.369,0.644,0.600,��쐼,4.8,�L
2021/05/20,21:10,0.623,0.913,0.582,1.120,0.793,0.370,0.643,0.602,��쐼,4.2,�L
2021/05/20,21:20,0.622,0.913,0.581,1.119,0.791,0.370,0.642,0.600,��,4.0,�L
2021/05/20,21:30,0.622,0.913,0.580,1.118,0.790,0.370,0.641,0.598,��,3.5,�L
2021/05/20,21:40,0.622,0.911,0.580,1.119,0.790,0.371,0.643,0.601,��,3.5,�L
2021/05/20,21:50,0.621,0.912,0.579,1.115,0.791,0.371,0.642,0.598,��쓌,2.8,�L
2021/05/20,22:00,0.621,0.912,0.580,1.116,0.790,0.370,0.642,0.598,��쓌,3.8,�L
2021/05/20,22:10,0.621,0.911,0.580,1.116,0.789,0.369,0.641,0.600,��쓌,4.5,�L
2021/05/20,22:20,0.620,0.910,0.580,1.114,0.788,0.369,0.642,0.600,��,4.9,�L
2021/05/20,22:30,0.620,0.909,0.578,1.115,0.786,0.370,0.639,0.598,��,3.9,�L
2021/05/20,22:40,0.619,0.909,0.579,1.112,0.786,0.368,0.640,0.598,��쓌,3.3,�L
2021/05/20,22:50,0.619,0.906,0.579,1.112,0.782,0.368,0.639,0.597,��쓌,3.1,�L
2021/05/20,23:00,0.618,0.904,0.577,1.111,0.784,0.368,0.640,0.598,��쓌,3.4,�L
2021/05/20,23:10,0.617,0.903,0.576,1.109,0.784,0.368,0.639,0.597,��쓌,3.5,�L
2021/05/20,23:20,0.617,0.901,0.576,1.110,0.780,0.368,0.639,0.596,�쓌,4.8,�L
2021/05/20,23:30,0.615,0.899,0.574,1.107,0.780,0.368,0.638,0.597,�쓌,6.1,�L
2021/05/20,23:40,0.615,0.897,0.575,1.107,0.779,0.366,0.638,0.596,�쓌,5.1,�L
2021/05/20,23:50,0.615,0.897,0.575,1.103,0.778,0.368,0.636,0.596,�쓌,5.6,�L
